www.pogodaiklimat.ru

Погода и климат >> Архив погоды >> Россия >> Якутия >> Столб Остров


ПОГОДА на Столб Острове

  • Прогноз погоды на Столб Острове
  • Монитор погоды на Столб Острове

АРХИВ ПОГОДЫ на Столб Острове

Время (UTC), дата Ветер
(напр.,м/с)
 
Видим.   Явления Облачность Т
(С)
Тd
(С)
f
(%)
Тe
(С)
Тes
(С)
Комфортность P
(гПа)
Po
(гПа)
Тmin
(С)
Tmax
(С)
R
(мм)
R24
(мм)
S
(см)
18 12.06 З 7 50 км 10/10 300 м
[Sc]
+6.2 +3.9 85 +1 +1 999.9 997.5
21 12.06 З 7 50 км 10/10 300 м
[Sc]
+4.2 +2.2 87 -2 -2 1003.2 1000.8
00 13.06 СЗ 8 50 км 10/10 300 м
[Cb calv]
+4.8 +3.9 94 -1 -1 1005.7 1003.3
03 13.06 СЗ 9-10
{13}
50 км 10/10 600 м
[Sc]
+4.8 +1.0 76 -1 -1 1008.3 1005.9
06 13.06 З 9-11
{12}
50 км 10/10 600 м
[Sc]
+5.4 -0.7 65 -0 -0 1010.8 1008.4
09 13.06 СЗ 10-11
{12}
50 км 4/3 300 м
[Sc Ac trans]
+5.2 -1.3 63 -1 -1 1013.4 1011.0
12 13.06 СЗ 7
{13}
50 км 9/9 600 м
[Sc]
+4.8 -1.8 62 -0 -0 1014.5 1012.1 +5.8
15 13.06 З 6
{10}
50 км 10/10 600 м
[Sc]
+4.7 -2.6 59 0 0 1015.0 1012.6
18 13.06 СЗ 3 50 км 8/8 600 м
[Sc]
+4.8 -2.1 61 +2 +2 1015.4 1013.0
21 13.06 С 1 50 км 8/8 600 м
[Sc]
+4.8 -1.8 62 +4 +5 1015.4 1013.0
00 14.06 З 1 50 км 8/8 600 м
[Sc]
+7.0 -0.8 58 +6 +8 1015.0 1012.6 +4.5
03 14.06 ЮВ 4 50 км 8/3 600 м
[Sc Ac trans]
+8.4 -1.6 49 +6 +8 1013.8 1011.4
06 14.06 ЮВ 6 50 км 6/0
[Ac trans]
+11.2 -0.4 45 +9 +11 1012.4 1010.0
09 14.06 Ю 7 50 км 8/8
[Sc]
+12.7 +2.1 48 +10 +10 1010.4 1008.0
12 14.06 ЮВ 8-10
{13}
50 км 3/3 600 м
[Sc]
+10.0 +2.5 60 +6 +6 1009.9 1007.5 +13.0
15 14.06 ЮВ 6
{12}
50 км ясно +10.2 +3.1 61 +7 +7 1009.7 1007.3
18 14.06 ЮВ 7
{12}
50 км ясно +10.3 +3.2 61 +7 +7 1008.5 1006.1
21 14.06 ЮВ 9-11
{14}
50 км ясно +12.3 +3.6 55 +9 +10 1007.0 1004.6
00 15.06 Ю 11-13
{14}
50 км ясно +15.5 +4.4 48 +13 +13 1005.5 1003.2 +10.0
03 15.06 ЮВ 11-13
{14}
50 км ясно +18.7 +4.6 39 +18 +18 1004.0 1001.7
06 15.06 Ю 10-12
{14}
50 км 10/0
[Ci fib]
+20.7 +5.7 38 +21 +21 комфорт 1003.3 1001.0
09 15.06 Ю 7
{14}
50 км 10/0
[Ac As Ci fib]
+20.5 +5.1 36 +21 +21 комфорт 1003.2 1000.9
12 15.06 ЮВ 7
{14}
50 км 10/0
[Ci fib]
+19.9 +5.3 38 +20 +20 1003.6 1001.3 +20.7
15 15.06 ЮВ 6
{11}
50 км 10/10 600 м
[Sc]
+16.9 +6.3 50 +16 +16 1004.4 1002.1
18 15.06 Ю 9-10
{12}
50 км осадки на расстоянии 8/6 600 м
[Cb cap Ac trans]
+16.9 +8.1 56 +15 +15 1004.2 1001.9
21 15.06 ЮВ 9-11
{12}
50 км 9/9 600 м
[Cb cap Ac trans]
+17.0 +5.7 47 +16 +16 1004.2 1001.9
00 16.06 ЮВ 7
{12}
50 км 10/10 600 м
[Cb calv]
+16.9 +4.7 44 +16 +16 1005.5 1003.2 +16.7
03 16.06 З 6
{14}
10 км слаб. ливневой дождь 10/10 600 м
[Cb cap]
+14.0 +10.2 78 +12 +12 1007.6 1005.3 +14.0
06 16.06 ЮЗ 3 20 км слаб. дождь 10/10 600 м
[Sc]
+12.6 +8.2 75 +11 +11 1009.8 1007.5
09 16.06 Ю 4 20 км {дождь} 10/10 600 м
[Sc]
+11.6 +7.5 76 +9 +9 1012.7 1010.4
12 16.06 СЗ 6 20 км {дождь} 10/10 600 м
[Sc]
+8.2 +1.3 62 +4 +4 1016.5 1014.1 +20.1 0.5
15 16.06 С 3 50 км 10/10 600 м
[Sc]
+8.5 +1.1 60 +6 +6 1018.2 1015.8
18 16.06 СЗ 3 50 км 3/0
[Ac trans]
+8.9 +0.2 54 +7 +7 1019.7 1017.3
21 16.06 СЗ 2 50 км 3/0
[Ac trans]
+9.0 -1.4 48 +8 +10 1020.8 1018.4
00 17.06 С 2 50 км 8/6 600 м
[Sc Ac trans]
+9.1 -0.2 52 +8 +10 1021.7 1019.3 +8.1
03 17.06 СВ 2 50 км 8/6 600 м
[Sc Ac trans]
+10.3 +0.2 50 +9 +12 1021.5 1019.1
06 17.06 В 5 50 км 8/4 600 м
[Sc Ac trans Ci fib]
+12.4 +2.0 49 +10 +12 1020.8 1018.4
09 17.06 В 6 50 км 4/3 600 м
[Sc Ac trans]
+13.0 +1.3 45 +11 +12 1019.7 1017.3
12 17.06 В 6 50 км 4/0
[Ac trans]
+11.1 +1.7 52 +8 +9 1019.4 1017.0 +14.5
15 17.06 В 6 50 км 3/0
[Ci fib]
+7.4 -1.6 53 +4 +4 1018.9 1016.5
18 17.06 ЮВ 6 50 км 3/0
[Ci fib]
+6.8 -1.1 57 +3 +3 1018.8 1016.4
21 17.06 ЮВ 7 50 км 3/0
[Ci fib]
+10.0 +1.9 57 +7 +7 1018.0 1015.6
00 18.06 В 7 50 км 4/0
[Ci fib]
+10.8 -1.8 41 +8 +10 1016.9 1014.5 +6.8
03 18.06 В 9-10
{13}
50 км ясно +11.9 -1.4 40 +9 +10 1014.7 1012.3
06 18.06 ЮВ 10-12
{14}
50 км 3/0
[Ci fib]
+13.5 +0.5 41 +11 +11 1012.4 1010.0
09 18.06 ЮВ 10-11
{14}
50 км 10/0
[Ci fib]
+13.9 +0.8 41 +11 +11 1010.1 1007.7
12 18.06 В 9-11
{14}
50 км 10/0
[Ci fib]
+13.3 +1.5 45 +11 +11 1009.0 1006.6 +13.9
15 18.06 ЮВ 9-11
{14}
50 км 10/0
[Ci fib]
+11.2 +7.9 80 +7 +7 1007.6 1005.2
18 18.06 ЮВ 7
{12}
50 км 8/0
[Ci fib]
+11.6 +8.6 82 +8 +9 1006.3 1003.9
21 18.06 ЮВ 8
{11}
50 км 3/0
[Ci fib]
+17.8 +4.4 41 +17 +17 1004.6 1002.3
00 19.06 ЮВ 8-10
{13}
50 км 4/0
[Ci fib]
+24.7 +9.2 37 +25 +26 комфорт 1004.4 1002.1 +11.2
03 19.06 Ю 7
{11}
50 км 3/0
[Ci fib]
+28.4 +5.1 23 +27 +30 жарко 1004.1 1001.8
06 19.06 З 7
{12}
50 км 3/1 600 м
[Cu hum Ci fib]
+28.4 +6.9 26 +28 +30 жарко 1004.4 1002.1
09 19.06 СЗ 7
{14}
50 км 10/5 600 м
[Sc Ac trans Ci fib]
+12.4 +10.1 86 +9 +10 1010.7 1008.4
12 19.06 С 5
{10}
50 км 10/10 600 м
[Sc]
+10.4 +8.1 86 +7 +7 1013.7 1011.3 +31.8

 

Местоположение метеостанции Столб Остров (Якутия, Россия): широта 72.40 долгота 126.30 высота над уровнем моря 20 м.

В архиве по умолчанию представлена погода на Столб Острове за последнюю неделю. Архивные данные за месяц целиком и за предыдущие месяцы, начиная с января 2011 года, Вы можете получить, выбрав интересующий диапазон дат из раскрывающегося списка и нажав кнопку "Ввод!".


*Определитесь, кто Вы:
робот инопланетянин человек

Внимание! Время в таблицах - всемирное. Для получения местного времени необходимо прибавить поправку, которая равна 9 ч.

Смотрите также архив погоды в соседних городах и на ближайших метеорологических станциях:

Погода на Мысе Быков (Якутия, Россия) (105 км)
Погода в Тюмяти (Якутия, Россия) (109 км)
Погода в Тикси (Якутия, Россия) (128 км)
Погода в Кюсюре (Якутия, Россия) (195 км)
Погода на Усть-Оленеке (Якутия, Россия) (225 км)
Погода в Юбилейной (Якутия, Россия) (392 км)
Погода в Джарджане (Якутия, Россия) (417 км)
Погода в Саскылахе (Якутия, Россия) (421 км)
Погода в Усть-Куйге (Якутия, Россия) (426 км)
Погода в Анабаре (Якутия, Россия) (430 км)

Пояснения к столбцам:

Ветер - указаны скорость ветра в м/с - средняя за 10 мин, порывы в срок и между сроками (в фигурных скобках) и направление, откуда дует ветер: С - северный, СВ - северо-восточный, В - восточный, ЮВ - юго-восточный, Ю - южный, ЮЗ - юго-западный, З - западный, СЗ - северо-западный.
Видимость - горизонтальная дальность видимости в метрах или километрах. При видимости от 1 до 10 км при отсутствии осадков обычно наблюдается дымка, при ухудшении видимости до 1 км и менее - туман. В сухую погоду видимость может ухудшаться дымом, пылью или мглою.
Явления - указаны атмосферные явления, наблюдавшиеся в срок или в последний час перед сроком; фигурными скобками обозначены явления, наблюдавшиеся между сроками (за 1-3 часа до срока); квадратными скобками обозначены град или гололедные отложения с указанием их диаметра в мм.
Облачность - указаны через наклонную черту общая и нижняя облачность в баллах и высота нижней границы облаков в метрах; квадратными скобками обозначены формы облаков: Ci - перистые, Cs - перисто-слоистые, Cc - перисто-кучевые, Ac - высококучевые, As - высокослоистые, Sc - слоисто-кучевые, Ns - слоисто-дождевые, Cu - кучевые, Cb - кучево-дождевые. Подробнее классификацию облаков см. в Атласе облаков (PDF).
T - Температура воздуха - температура, измеренная на высоте 2 м над землей.
Td - Температура точки росы - температура, при понижении до которой содержащийся в воздухе водяной пар достигнет насыщения.
f - Относительная влажность воздуха - влажноcть воздуха, измеренная на высоте 2 м над землей.
Te - Эффективная температура - температура, которую ощущает одетый по сезону человек в тени. Характеристика душности погоды. При расчете учитывается влияние влажности воздуха и скорости ветра на теплоощущения человека.
Tes - Эффективная температура на солнце - температура, которую ощущает человек, с поправкой на солнечный нагрев. Характеристика знойности погоды. Зависит от высоты солнца над горизонтом, облачности и скорости ветра. Ночью, в пасмурную погоду, а также при ветре 12 м/с и более поправка равна нулю.
P - Атмосферное давление - приведенное к уровню моря атмосферное давление.
Po - Атмосферное давление - измеренное на уровне метеостанции атмосферное давление.
Tmin - Минимальная температура - минимум температуры воздуха на высоте 2 м над землей.
Tmax - Максимальная температура - максимум температуры воздуха на высоте 2 м над землей.
R - Количество осадков - Количество выпавших осадков за период времени, мм. При наведении курсора мыши на число - период времени, за который выпало указанное количество осадков.
R24 - Количество осадков - Количество выпавших осадков за 24 часа, мм.
S - Снежный покров - Высота снежного покрова, см. При наведении курсора мыши на число - состояние снежного покрова и степень покрытия местности в баллах.